Вернуться в каталог

CAPE 1

АктивенЛюбительское радиоSSO
NORAD 31130·PAYLOAD·🇺🇸 United States

Запущен Apr 17, 2007 с Baikonur Cosmodrome

Loading…

Ближайшие Пролёты (ближайшие 24 часа)

TLE

СвежийSource: Space-Track

Эпоха: Sep 14, 2026, 03:59 UTC

1 31130U 07012P   26257.16599547  .00000710  00000-0  13556-3 0  9997
2 31130  98.4571 234.1045 0083673 152.5818 207.9836 14.65055656 31383

Отслеживайте CAPE 1 в реальном времени с AllMySat

Download on the App Store